Location: Arleux
(50.3632°N, 2.8721°E)
Time: 07:58:34
(UTC+00:00)

Envisat - Visible Passes

Search period start: 26 February 2021 00:00
Search period end: 08 March 2021 00:00
Orbit: 764 x 766 km, 98.1° (Epoch: 25 February)

Date Brightness Start Highest point End Pass type
(mag) Time Alt. Az. Time Alt. Az. Time Alt. Az.
26 Feb 5.1 04:45:46 10° NNE 04:50:12 29° E 04:54:37 10° SSE visible
27 Feb 6.0 04:10:05 10° NE 04:12:57 15° E 04:15:49 10° ESE visible
27 Feb 3.0 05:47:34 10° NNE 05:52:41 87° WNW 05:57:46 10° SSW visible
28 Feb 4.1 05:10:51 10° NNE 05:15:47 47° E 05:20:40 10° S visible
28 Feb 6.4 18:12:28 10° WSW 18:14:54 13° W 18:17:19 10° WNW visible
01 Mar 5.4 04:34:34 10° NE 04:38:41 24° E 04:42:46 10° SE visible
02 Mar 6.2 03:59:27 10° ENE 04:01:21 12° E 04:03:15 10° ESE visible
02 Mar 3.2 05:36:09 10° NNE 05:41:16 77° ESE 05:46:20 10° S visible
03 Mar 4.6 04:59:32 10° NNE 05:04:18 38° E 05:09:01 10° SSE visible
04 Mar 5.7 04:23:26 10° NE 04:27:08 20° E 04:30:47 10° SE visible
05 Mar 3.6 05:24:44 10° NNE 05:29:48 63° ESE 05:34:50 10° S visible
06 Mar 5.0 04:48:15 10° NNE 04:52:46 31° E 04:57:17 10° SSE visible
07 Mar 6.0 04:12:26 10° NE 04:15:33 16° E 04:18:39 10° SE visible
